• Em Portugal
  • Lista de países
  • Para 7 dias
  • Temperatura da água
  • Mapas de satélite
  • Mapa do tempo
  • Widgets de tempo
  • user-avatar
    Iniciar Sessão

    Previsão horária em La Rioja

    Hoje, 17 Dezembro, Domingo

    Tempo Temperatura Precipitação Vento Pressão Humidade
    00:00 +37°C° 0,7 mm 3 m/s 705 mmHg 30%
    01:00 +37°C° 0,7 mm 3 m/s 705 mmHg 30%
    02:00 +36°C° 0,7 mm 3 m/s 706 mmHg 29%
    03:00 +35°C° 1 mm 5 m/s 707 mmHg 35%
    04:00 +33°C° 1 mm 7 m/s 709 mmHg 40%
    05:00 +31°C° 1 mm 8 m/s 710 mmHg 46%
    06:00 +29°C° 1,8 mm 8 m/s 713 mmHg 48%
    07:00 +28°C° 1,8 mm 7 m/s 715 mmHg 50%
    08:00 +27°C° 1,8 mm 7 m/s 717 mmHg 53%
    09:00 +26°C° 0,4 mm 6 m/s 717 mmHg 49%
    10:00 +26°C° 0,4 mm 5 m/s 718 mmHg 45%
    11:00 +26°C° 0,4 mm 4 m/s 718 mmHg 41%
    12:00 +27°C° 0 mm 4 m/s 718 mmHg 37%
    13:00 +28°C° 0 mm 4 m/s 717 mmHg 33%
    14:00 +29°C° 0 mm 4 m/s 717 mmHg 29%
    15:00 +29°C° 0 mm 4 m/s 717 mmHg 28%
    16:00 +30°C° 0 mm 4 m/s 716 mmHg 27%
    17:00 +30°C° 0 mm 3 m/s 716 mmHg 26%
    18:00 +29°C° 0 mm 3 m/s 717 mmHg 28%
    19:00 +29°C° 0 mm 3 m/s 717 mmHg 31%
    20:00 +28°C° 0 mm 3 m/s 718 mmHg 33%
    21:00 +27°C° 0 mm 3 m/s 718 mmHg 35%
    22:00 +27°C° 0 mm 2 m/s 719 mmHg 37%
    23:00 +26°C° 0 mm 2 m/s 719 mmHg 38%

    Amanhã, 18 Dezembro, Segunda-feira

    Tempo Temperatura Precipitação Vento Pressão Humidade
    00:00 +26°C° 0 mm 2 m/s 719 mmHg 38%
    01:00 +25°C° 0 mm 2 m/s 718 mmHg 38%
    02:00 +24°C° 0 mm 2 m/s 718 mmHg 38%
    03:00 +24°C° 0 mm 2 m/s 717 mmHg 38%
    04:00 +24°C° 0 mm 2 m/s 717 mmHg 38%
    05:00 +23°C° 0 mm 2 m/s 716 mmHg 38%
    06:00 +24°C° 0 mm 2 m/s 717 mmHg 36%
    07:00 +25°C° 0 mm 3 m/s 717 mmHg 34%
    08:00 +26°C° 0 mm 3 m/s 717 mmHg 32%
    09:00 +27°C° 0 mm 3 m/s 716 mmHg 31%
    10:00 +28°C° 0 mm 4 m/s 716 mmHg 29%
    11:00 +30°C° 0 mm 4 m/s 716 mmHg 28%
    12:00 +32°C° 0 mm 4 m/s 715 mmHg 27%
    13:00 +33°C° 0 mm 4 m/s 714 mmHg 26%
    14:00 +34°C° 0 mm 5 m/s 713 mmHg 26%
    15:00 +34°C° 0 mm 5 m/s 713 mmHg 26%
    16:00 +34°C° 0 mm 5 m/s 712 mmHg 26%
    17:00 +34°C° 0 mm 5 m/s 712 mmHg 27%
    18:00 +33°C° 0 mm 5 m/s 713 mmHg 29%
    19:00 +32°C° 0 mm 4 m/s 713 mmHg 32%
    20:00 +30°C° 0 mm 4 m/s 714 mmHg 34%
    21:00 +30°C° 0,1 mm 3 m/s 714 mmHg 36%
    22:00 +29°C° 0,1 mm 3 m/s 715 mmHg 38%
    23:00 +29°C° 0,1 mm 2 m/s 715 mmHg 41%

    Depois de amanhã, 19 Dezembro, Terça-feira

    Tempo Temperatura Precipitação Vento Pressão Humidade
    00:00 +29°C° 0,1 mm 2 m/s 715 mmHg 42%
    01:00 +28°C° 0,1 mm 2 m/s 714 mmHg 44%
    02:00 +28°C° 0,1 mm 2 m/s 714 mmHg 45%
    03:00 +27°C° 0 mm 2 m/s 714 mmHg 48%
    04:00 +27°C° 0 mm 2 m/s 714 mmHg 50%
    05:00 +26°C° 0 mm 2 m/s 714 mmHg 53%
    06:00 +27°C° 0 mm 2 m/s 714 mmHg 50%
    07:00 +28°C° 0 mm 2 m/s 714 mmHg 47%
    08:00 +29°C° 0 mm 2 m/s 714 mmHg 44%
    09:00 +30°C° 0 mm 2 m/s 714 mmHg 41%
    10:00 +32°C° 0 mm 2 m/s 714 mmHg 37%
    11:00 +34°C° 0 mm 3 m/s 714 mmHg 33%
    12:00 +35°C° 0 mm 3 m/s 713 mmHg 32%
    13:00 +36°C° 0 mm 4 m/s 713 mmHg 30%
    14:00 +37°C° 0 mm 4 m/s 712 mmHg 28%
    15:00 +37°C° 0,1 mm 5 m/s 712 mmHg 31%
    16:00 +38°C° 0,1 mm 6 m/s 712 mmHg 33%
    17:00 +36°C° 0,1 mm 7 m/s 712 mmHg 36%
    18:00 +35°C° 0,1 mm 7 m/s 712 mmHg 44%
    19:00 +33°C° 0,1 mm 6 m/s 713 mmHg 51%
    20:00 +30°C° 0,1 mm 5 m/s 713 mmHg 59%
    21:00 +29°C° 0,2 mm 5 m/s 714 mmHg 63%
    22:00 +29°C° 0,2 mm 4 m/s 714 mmHg 68%
    23:00 +28°C° 0,2 mm 4 m/s 715 mmHg 72%

    20 Dezembro, Quarta-feira

    Tempo Temperatura Precipitação Vento Pressão Humidade
    00:00 +27°C° 0,5 mm 3 m/s 714 mmHg 74%
    01:00 +27°C° 0,5 mm 3 m/s 714 mmHg 76%
    02:00 +26°C° 0,5 mm 2 m/s 713 mmHg 77%
    03:00 +26°C° 0,1 mm 2 m/s 713 mmHg 78%
    04:00 +26°C° 0,1 mm 2 m/s 713 mmHg 78%
    05:00 +26°C° 0,1 mm 2 m/s 713 mmHg 79%
    06:00 +26°C° 0 mm 2 m/s 713 mmHg 75%
    07:00 +27°C° 0 mm 1 m/s 713 mmHg 71%
    08:00 +28°C° 0 mm 1 m/s 713 mmHg 67%
    09:00 +29°C° 0,1 mm 2 m/s 713 mmHg 61%
    10:00 +31°C° 0,1 mm 2 m/s 713 mmHg 54%
    11:00 +32°C° 0,1 mm 2 m/s 712 mmHg 47%
    12:00 +35°C° 0,4 mm 2 m/s 711 mmHg 43%
    13:00 +36°C° 0,4 mm 3 m/s 711 mmHg 39%
    14:00 +37°C° 0,4 mm 3 m/s 710 mmHg 35%
    15:00 +37°C° 0,5 mm 4 m/s 709 mmHg 34%
    16:00 +38°C° 0,5 mm 4 m/s 709 mmHg 33%
    17:00 +38°C° 0,5 mm 4 m/s 708 mmHg 31%
    18:00 +37°C° 0,2 mm 4 m/s 709 mmHg 34%
    19:00 +36°C° 0,2 mm 4 m/s 709 mmHg 37%
    20:00 +35°C° 0,2 mm 4 m/s 710 mmHg 40%
    21:00 +34°C° 0,1 mm 4 m/s 710 mmHg 44%
    22:00 +33°C° 0,1 mm 3 m/s 711 mmHg 47%
    23:00 +31°C° 0,1 mm 2 m/s 711 mmHg 50%

    21 Dezembro, Quinta-feira

    Tempo Temperatura Precipitação Vento Pressão Humidade
    00:00 +30°C° 0 mm 2 m/s 711 mmHg 52%
    01:00 +30°C° 0 mm 2 m/s 710 mmHg 55%
    02:00 +29°C° 0 mm 1 m/s 710 mmHg 57%
    03:00 +29°C° 0 mm 1 m/s 710 mmHg 58%
    04:00 +28°C° 0 mm 1 m/s 710 mmHg 60%
    05:00 +28°C° 0 mm 1 m/s 710 mmHg 62%
    06:00 +29°C° 0 mm 1 m/s 710 mmHg 57%
    07:00 +30°C° 0 mm 1 m/s 710 mmHg 52%
    08:00 +31°C° 0 mm 1 m/s 711 mmHg 47%
    09:00 +32°C° 0 mm 1 m/s 711 mmHg 44%
    10:00 +35°C° 0 mm 2 m/s 711 mmHg 40%
    11:00 +36°C° 0 mm 2 m/s 711 mmHg 36%
    12:00 +37°C° 0,4 mm 3 m/s 710 mmHg 34%
    13:00 +38°C° 0,4 mm 3 m/s 710 mmHg 32%
    14:00 +40°C° 0,4 mm 4 m/s 709 mmHg 30%
    15:00 +40°C° 0,4 mm 4 m/s 709 mmHg 31%
    16:00 +40°C° 0,4 mm 4 m/s 709 mmHg 31%
    17:00 +40°C° 0,4 mm 5 m/s 708 mmHg 32%
    18:00 +37°C° 1 mm 5 m/s 708 mmHg 36%
    19:00 +36°C° 1 mm 4 m/s 709 mmHg 40%
    20:00 +35°C° 1 mm 4 m/s 709 mmHg 45%
    21:00 +34°C° 1,3 mm 3 m/s 709 mmHg 48%
    22:00 +33°C° 1,3 mm 3 m/s 709 mmHg 51%
    23:00 +31°C° 1,3 mm 3 m/s 710 mmHg 55%

    22 Dezembro, Sexta-feira

    Tempo Temperatura Precipitação Vento Pressão Humidade
    00:00 +31°C° 0,5 mm 2 m/s 709 mmHg 56%
    01:00 +30°C° 0,5 mm 2 m/s 709 mmHg 57%
    02:00 +30°C° 0,5 mm 1 m/s 708 mmHg 58%
    03:00 +30°C° 0,3 mm 1 m/s 708 mmHg 58%
    04:00 +29°C° 0,3 mm 1 m/s 708 mmHg 59%
    05:00 +29°C° 0,3 mm 1 m/s 708 mmHg 60%
    06:00 +30°C° 0 mm 1 m/s 709 mmHg 55%
    07:00 +31°C° 0 mm 1 m/s 709 mmHg 50%
    08:00 +32°C° 0 mm 1 m/s 709 mmHg 46%
    09:00 +33°C° 0,4 mm 1 m/s 709 mmHg 43%
    10:00 +36°C° 0,4 mm 2 m/s 709 mmHg 40%
    11:00 +37°C° 0,4 mm 2 m/s 709 mmHg 36%
    12:00 +38°C° 0,6 mm 3 m/s 708 mmHg 35%
    13:00 +38°C° 0,6 mm 4 m/s 708 mmHg 34%
    14:00 +40°C° 0,6 mm 4 m/s 707 mmHg 33%
    15:00 +40°C° 0,8 mm 4 m/s 707 mmHg 34%
    16:00 +38°C° 0,8 mm 4 m/s 707 mmHg 36%
    17:00 +39°C° 0,8 mm 5 m/s 707 mmHg 38%
    18:00 +37°C° 1,2 mm 4 m/s 707 mmHg 42%
    19:00 +36°C° 1,2 mm 4 m/s 708 mmHg 46%
    20:00 +35°C° 1,2 mm 3 m/s 709 mmHg 50%
    21:00 +33°C° 3,4 mm 3 m/s 709 mmHg 55%
    22:00 +31°C° 3,4 mm 3 m/s 710 mmHg 60%
    23:00 +30°C° 3,4 mm 3 m/s 711 mmHg 65%
    Mostrar mais